Back to catalog

COSMOS 2251 DEB

AliveVLEO
NORAD 35670·DEBRIS·🇷🇺 Russia

Launched Jun 16, 1993 from Plesetsk Cosmodrome

Loading…

Next Passes (next 24 hours)

TLE

FreshSource: Space-Track

Epoch: Sep 14, 2026, 06:36 UTC

1 35670U 93036APM 26257.27512919  .00008405  00000-0  64014-3 0  9995
2 35670  73.8905 220.8922 0027354 125.6233 234.7508 15.01910554918540

Track COSMOS 2251 DEB in real time with AllMySat

Download on the App Store